星链-32727 (STARLINK-32727)

导读

STARLINK-32727是美国太空探索技术公司(SpaceX)星链互联网卫星星座中的一员,于2025年1月24日由美国发射升空,星链项目旨在构建覆盖全球的低轨卫星互联网星座,该卫星加入星座后,可进一步提升全球范围,尤其是偏远地区的互联网接入服务能力,推动全球互联网络覆盖范围扩展与服务稳定性提升。

Basic Information
目录编号:
62828
目录名称:
STARLINK-32727
国际标识:
2025-018Y
轨道中心:
EARTH
卫星名称:
星链-32727
卫星全名:
星链-32727 (STARLINK-32727)
卫星状态:
在轨 (已飞行588 天)
发射日期:
2025-01-24 UTC
国别 :
美国 (US)
星等 :
--
Orbit Information
数据来源 国际轨道数据
星历时间: 2026-09-02T21:52:01+0800
1天前
查看轨道信息
半长轴: 6840.828km
偏心率: 0.0001534
轨道倾角: 53.157°
近地点辐角 86.175°
升交点赤经 201.378°
平近点角 273.943°
近地点: 461.641km
远地点: 463.741km
周期: 93.847分钟
每日圈数: 15.344044
Detailed Information
固有亮度:
5
最大亮度:
2.5
卫星平台:
Starlink V1.0
覆盖范围:
全球
运营商:
太空探索技术公司
运营商所在国:
美国
制造商(研发单位):
太空探索技术公司
制造商所在国:
美国
使用方式:
暂无
Satellite Introduction
Starlink 计划是 SpaceX 推出的全球卫星互联网项目,通过发射低轨道卫星,为全球尤其是偏远地区提供高速、低延迟的互联网服务。自 2019 年起,Starlink 已部署数千颗卫星,旨在缩小全球数字鸿沟,推动互联网普及。该项目还为军事、航空等行业提供通信支持,带来广泛经济效益。
2D Orbit Map
3D Orbit Map
Orbit Altitude Analysis Chart
Orbit Inclination Analysis Chart
Orbit Comprehensive Analysis Chart
View Comprehensive Chart
Conjunction Data List
Event ID Objects TCA Miss Dist (km) Collision Risk Probability Collision Risk Index (CRI) Action
CDM_260905-122906-282806-636421
2026-09-05T
12:29:59+0000
0.558 km
远距离
1.00622E-4 高风险 0.75
CDM_260905-034205-257706-282821
2026-09-05T
03:42:12+0000
0.808 km
远距离
4.748982E-5 中风险 0.69
CDM_260905-105606-282806-636421
2026-09-05T
10:56:12+0000
1.239 km
极远距离
7.747058E-6 低风险 0.53
CDM_260904-231104-474406-282821
2026-09-04T
23:11:02+0000
1.369 km
极远距离
6.195144E-6 低风险 0.51
CDM_260905-122804-474406-282821
2026-09-05T
12:28:17+0000
1.500 km
极远距离
4.59636E-6 低风险 0.48
CDM_260905-105404-474406-282821
2026-09-05T
10:54:29+0000
1.729 km
极远距离
2.976524E-6 低风险 0.44
CDM_260905-020805-257706-282821
2026-09-05T
02:08:24+0000
1.978 km
极远距离
2.566839E-6 低风险 0.43
CDM_260901-095005-328006-282821
2026-09-01T
09:50:48+0000
2.034 km
极远距离
2.363795E-6 低风险 0.42
CDM_260903-190306-282806-370021
2026-09-03T
19:03:14+0000
2.033 km
极远距离
1.892207E-6 低风险 0.41
CDM_260905-004404-474406-282821
2026-09-05T
00:44:50+0000
2.488 km
极远距离
1.272432E-6 低风险 0.37